Regional Weather Roundup
Issued by NWS

Home | Current Version | Previous Version | Graphics & Text | Print | Product List | Glossary On
Versions: 1 2 3 4 5 6 7 8 9 10 11 12 13 14 15 16 17 18 19 20 21 22 23 24 25 26 27 28 29 30 31 32 33 34 35 36 37 38 39 40 41 42 43 44 45 46 47 48 49 50
000
ASUS45 KSLC 310210
RWRUT
UTAH REGIONAL WEATHER ROUNDUP
NATIONAL WEATHER SERVICE SALT LAKE CITY UT
800 PM MDT THU JUL 30 2015

UTZ001>011-023>025-310300-

NORTHERN UTAH

CITY           SKY/WX    TMP DP  RH WIND       PRES   REMARKS
BRIGHAM CITY   CLEAR     89  19   7 E6        30.20S
HILL AFB       CLEAR     87  28  11 NW6       30.24F
LOGAN          CLEAR     85  33  15 W8        30.21F
OGDEN          CLEAR     86  28  12 NW6       30.20F
PROVO AIRPORT  PTCLDY    86  37  17 NW13      30.21S
SALT LAKE CITY PTCLDY    89  22   8 NW8       30.19S
VERNAL         PTCLDY    85  28  12 W3        30.22S
WENDOVER       CLEAR     90  27  10 SE5       30.19S
HEBER CITY     PTCLDY    82  23  11 N6        30.29S
WEST JORDAN    CLEAR     86  32  14 NW7       30.23S

$$

UTZ012>022-026-027-310300-

SOUTHERN/CENTRAL UTAH

CITY           SKY/WX    TMP DP  RH WIND       PRES   REMARKS
BLANDING       PTCLDY    79  42  27 SE14      30.34R
BRYCE CANYON   MOCLDY    75  42  30 S6        30.41S
CEDAR CITY     MOCLDY    85  39  19 SW5G16    30.22S
DELTA          CLEAR     91  19   7 NW9       30.19S
HANKSVILLE     PTCLDY    93  25   8 E3        30.14S
MILFORD        CLEAR     91  30  11 N15       30.18R
MOAB/CYNLANDS  CLEAR     93  17   6 CALM      30.12S
PRICE          PTCLDY    86  16   7 NW14      30.27R
ST GEORGE      PTCLDY    95  45  17 W8        30.02S HX  91

$$

REGIONAL REPORTS     COLORADO/ARIZONA

CITY           SKY/WX    TMP DP  RH WIND       PRES   REMARKS
CRAIG, CO      CLEAR     81  30  15 N7        30.30R
GRAND JUNCTION CLEAR     86  29  12 W3        30.15S
RIFLE          CLEAR     87  30  13 NW7       30.21R
MONTROSE       CLEAR     85  36  17 NW6       30.25R
CORTEZ         MOCLDY    72  49  44 SE8       30.31R
PAGE, AZ       CLOUDY    92  44  19 CALM      30.12S
GRAND CANYON   CLOUDY    72  46  39 E8        30.36S
KINGMAN        CLOUDY    83  53  35 S5        30.13R
FLAGSTAFF      CLOUDY    64  58  80 SE6       30.40R

$$

REGIONAL REPORTS    NEVADA/IDAHO/WYOMING

CITY           SKY/WX    TMP DP  RH WIND       PRES   REMARKS
LAS VEGAS, NV  MOCLDY    95  54  25 S17G31    29.92R HX  93
ELY            MOCLDY    87  18   8 N9        30.28S
ELKO           PTCLDY    91  15   6 N10       30.22S
POCATELLO, ID  CLEAR     86  30  13 E7        30.23F
BURLEY         CLEAR     83  39  21 W8        30.19S
EVANSTON, WY   CLEAR     77  21  12 N13       30.41S
ROCK SPRINGS   CLEAR     77  22  13 NW5       30.37S
KEMMERER       CLEAR     73  21  14 W9        30.43S

$$



USA.gov is the U.S. government's official web portal to all federal, state and local government web resources and services.